User: anonymous   Login
Location: Unspecified
(0.0000°N, 0.0000°E)
Time: 19:39:32
(UTC+00:00)
Language:

LANDSAT 8 - Orbit

View from above orbital plane
View from above orbital plane
View from above satellite
View from above satellite

Ground track
Ground track

The orbit data is extracted from the following two-line orbital elements,

1 39084U 13008A   18147.19187953 +.00000031 +00000-0 +16922-4 0  9998
2 39084 098.1819 217.4879 0001431 097.5335 262.6026 14.57126922281151
Epoch (UTC): 27 May 2018 04:36:18
Eccentricity: 0.0001431
inclination: 98.1819°
perigee height: 701 km
apogee height: 703 km
right ascension of ascending node: 217.4879°
argument of perigee: 97.5335°
revolutions per day: 14.57126922
mean anomaly at epoch: 262.6026°
orbit number at epoch: 28115

The dashed part of the orbit path shows where the satellite is in the earth's shadow,  

DLR